Flag Weather past 2 weeks in Breckenridge, Colorado, U.S.A.

Now
34 °F

Clear.


Feels Like: 21 °F
Forecast: 26 / 47 °F
Wind: 24 mph from West

Location: Copper Mountain - Red Cliff Pass

Current Time: Nov 28, 2014 at 7:00:01 AM

Latest Report: Nov 28, 2014 at 6:25 AM


Visibility: 7 mi

Pressure: 30.32 "Hg

Humidity: 23%

Dew point: 0 °F

Location of BreckenridgeLocation

Historic Weather in Breckenridge — Graph

°F

Breckenridge temperature yesterday

Maximum temperature yesterday: 36 °F (at 1:35 PM)
Minimum temperature yesterday: 25 °F (at 12:15 AM)
Average temperature yesterday: 31 °F

Past Weeks' High & Low Weather Summary

 TemperatureHumidityPressure
High36 °F (Nov 27, 1:35 PM)86% (Nov 13, 10:15 PM)30.54 "Hg (Nov 13, 10:15 PM)
Low-2 °F (Nov 16, 6:55 AM)15% (Nov 20, 9:15 AM)29.69 "Hg (Nov 23, 5:15 AM)
Average18 °F64%30.07 "Hg
* Reported Nov 13 5:15 AM — Nov 28 5:55 AM, Breckenridge, Weather by CustomWeather, © 2014

Note: Actual official high and low records may vary slightly from our data, if they occured in-between our weather recording intervals... More about our weather records

Advertising

Breckenridge weather history for previous 24 hours

 ConditionsComfort  
Time TempWeatherWind HumidityBarometerVisibility
5:55 AM
Nov 28
34 °FClear.29 mph23%30.31 "Hg4 mi
5:35 AM34 °FClear.22 mph23%30.32 "Hg10 mi
5:15 AM34 °FClear.26 mph23%30.33 "Hg5 mi
4:55 AM34 °FLight snow. Clear.28 mph25%30.32 "Hg2 mi
4:35 AM34 °FClear.30 mph25%30.33 "Hg4 mi
4:15 AM34 °FClear.29 mph25%30.34 "Hg5 mi
3:55 AM34 °FClear.31 mph25%30.34 "Hg3 mi
3:35 AM34 °FClear.32 mph27%30.34 "Hg5 mi
3:15 AM34 °FClear.36 mph27%30.34 "Hg3 mi
2:55 AM34 °FClear.31 mph27%30.35 "Hg2 mi
2:35 AM34 °FClear.28 mph27%30.37 "Hg7 mi
2:15 AM34 °FClear.33 mph27%30.36 "Hg4 mi
1:55 AM34 °FClear.29 mph27%30.37 "Hg3 mi
1:35 AM34 °FClear.30 mph27%30.37 "Hg7 mi
1:15 AM34 °FClear.24 mph29%30.38 "Hg10 mi
12:55 AM34 °FClear.22 mph32%30.40 "Hg10 mi
12:35 AM34 °FClear.23 mph35%30.40 "Hg10 mi
11:55 PM
Nov 27
34 °FClear.21 mph35%30.41 "Hg10 mi
11:35 PM34 °FClear.15 mph35%30.43 "Hg10 mi
11:15 PM34 °FClear.14 mph35%30.44 "Hg10 mi
10:55 PM34 °FClear.14 mph38%30.44 "Hg10 mi
10:35 PM34 °FPassing clouds.16 mph38%30.44 "Hg10 mi
10:15 PM34 °FPassing clouds.14 mph38%30.46 "Hg10 mi
9:55 PM34 °FPassing clouds.10 mph38%30.46 "Hg10 mi
9:35 PM32 °FPassing clouds.9 mph40%30.47 "Hg10 mi
9:15 PM32 °FPassing clouds.7 mph40%30.47 "Hg10 mi
8:35 PM34 °FClear.3 mph41%30.47 "Hg10 mi
7:55 PM34 °FClear.13 mph41%30.47 "Hg10 mi
7:35 PM34 °FClear.10 mph38%30.47 "Hg10 mi
7:15 PM34 °FClear.21 mph38%30.46 "Hg10 mi
6:55 PM34 °FClear.23 mph38%30.46 "Hg10 mi
6:35 PM34 °FClear.29 mph41%30.46 "Hg7 mi
6:15 PM34 °FClear.28 mph41%30.46 "Hg5 mi
5:55 PM34 °FClear.37 mph41%30.45 "Hg3 mi
5:35 PM34 °FPassing clouds.36 mph41%30.45 "Hg2 mi
4:55 PM34 °FPassing clouds.31 mph48%30.45 "Hg5 mi
4:35 PM34 °FMostly cloudy.21 mph48%30.46 "Hg5 mi
4:15 PM34 °FLight snow. Partly sunny.32 mph51%30.45 "Hg2 mi
3:55 PM34 °FSunny.33 mph48%30.45 "Hg3 mi
3:35 PM34 °FSunny.28 mph51%30.46 "Hg4 mi
3:15 PM34 °FSunny.25 mph51%30.46 "Hg2 mi
2:55 PM34 °FSunny.26 mph51%30.46 "Hg5 mi
2:35 PM34 °FSunny.28 mph51%30.45 "Hg4 mi
2:15 PM34 °FSunny.33 mph51%30.45 "Hg3 mi
1:55 PM36 °FSunny.21 mph48%30.46 "Hg10 mi
1:35 PM36 °FSunny.26 mph48%30.46 "Hg10 mi
1:15 PM34 °FSunny.24 mph51%30.47 "Hg7 mi
12:55 PM34 °FSunny.21 mph48%30.47 "Hg10 mi
12:35 PM34 °FSunny.24 mph48%30.48 "Hg10 mi
12:15 PM34 °FSunny.18 mph48%30.48 "Hg10 mi
11:55 AM34 °FSunny.18 mph51%30.50 "Hg10 mi
11:35 AM34 °FSunny.12 mph56%30.50 "Hg10 mi
11:15 AM32 °FSunny.13 mph55%30.51 "Hg10 mi
10:55 AM32 °FSunny.7 mph51%30.51 "Hg10 mi
10:35 AM30 °FSunny.8 mph43%30.52 "Hg10 mi
10:15 AM34 °FSunny.13 mph51%30.52 "Hg10 mi
9:55 AM34 °FSunny.8 mph41%30.53 "Hg10 mi
9:35 AM32 °FSunny.9 mph44%30.53 "Hg10 mi
9:15 AM30 °FSunny.8 mph43%30.53 "Hg10 mi
8:55 AM27 °FSunny.6 mph50%30.54 "Hg10 mi
8:35 AM27 °FSunny.8 mph50%30.53 "Hg10 mi
7:55 AM25 °FSunny.14 mph54%30.53 "Hg10 mi
7:35 AM25 °FSunny.16 mph59%30.53 "Hg10 mi
7:15 AM27 °FSunny.N/A54%30.52 "Hg10 mi
Weather by CustomWeather, © 2014

See weather overviewHow to use our weather pages